This demonstration page uses our WeatherBlox Daily Observations layout. Learn more.

Left ArrowRight Arrow

Hourly Observations for November 13, 2015

Temp ( °F °C ) Dew Point ( °F °C ) Humidity (%) Winds ( mph kmh ) Pressure ( in mb ) Visibility ( mi km ) Precip ( " mm )
12:53 am 00:53 Clear 46 7.8 31 -0.6 56 56 E 5 7 30.16 1022 10 16 0.00 0.00
1:53 am 01:53 Mostly Cloudy 46 7.8 33 0.6 61 61 ENE 6 9 30.16 1021 10 16 0.00 0.00
2:53 am 02:53 Clear 42 5.6 32 0 68 68 NE 6 9 30.16 1021 10 16 0.00 0.00
3:53 am 03:53 Clear 41 5 32 0 70 70 ENE 6 9 30.15 1021 10 16 0.00 0.00
4:53 am 04:53 Clear 41 5 32 0 70 70 NE 6 9 30.16 1021 10 16 0.00 0.00
5:53 am 05:53 Mostly Clear 44 6.7 33 0.6 65 65 ENE 6 9 30.18 1022 10 16 0.00 0.00
6:53 am 06:53 Clear 44 6.7 34 1.1 68 68 E 8 13 30.20 1023 10 16 0.00 0.00
7:53 am 07:53 Sunny 47 8.3 34 1.1 61 61 E 8 13 30.21 1023 10 16 0.00 0.00
8:53 am 08:53 Sunny 54 12.2 36 2.2 51 51 ESE 10 17 30.23 1024 10 16 0.00 0.00
9:53 am 09:53 Sunny 59 15 36 2.2 42 42 SE 18 30 30.23 1024 10 16 0.00 0.00
10:53 am 10:53 Sunny 61 16.1 34 1.1 36 36 SE 16 26 30.22 1023 10 16 0.00 0.00
11:53 am 11:53 Sunny 63 17.2 34 1.1 34 34 SSE 15 24 30.20 1023 10 16 0.00 0.00
12:53 pm 12:53 Sunny 64 17.8 35 1.7 34 34 SE 14 22 30.17 1022 10 16 0.00 0.00
1:53 pm 13:53 Sunny 65 18.3 34 1.1 32 32 SSE 9 15 30.12 1020 10 16 0.00 0.00
2:53 pm 14:53 Sunny 67 19.4 34 1.1 30 30 SE 14 22 30.11 1020 10 16 0.00 0.00
5:53 pm 17:53 Sunny 63 17.2 35 1.7 35 35 ESE 8 13 30.10 1019 10 16 0.00 0.00
6:53 pm 18:53 Clear 60 15.6 36 2.2 41 41 ESE 8 13 30.12 1020 10 16 0.00 0.00
7:53 pm 19:53 Clear 56 13.3 36 2.2 47 47 ESE 7 11 30.15 1021 10 16 0.00 0.00
8:53 pm 20:53 Mostly Clear 55 12.8 36 2.2 49 49 SE 6 9 30.17 1022 10 16 0.00 0.00
9:53 pm 21:53 Mostly Clear 56 13.3 36 2.2 47 47 SE 12 19 30.15 1021 10 16 0.00 0.00
10:53 pm 22:53 Clear 54 12.2 36 2.2 51 51 ESE 9 15 30.14 1021 10 16 0.00 0.00
11:53 pm 23:53 Clear 53 11.7 36 2.2 52 52 SE 10 17 30.13 1020 10 16 0.00 0.00

Powered by AerisWeather